| time (UTC) | temp F | wind direction | speed MPH | gust MPH | rain 1hr in | rain 24hr in | rain mn in | humidity % | barometer mb |
| 20260505230522 | 48 | 343 | 3.0 | 4.0 | 0.01 | 0.42 | 0.42 | 92 | 1044.8 |
| 20260505225521 | 48 | 352 | 4.0 | 5.0 | 0.01 | 0.42 | 0.42 | 92 | 1045.6 |
| 20260505225023 | 48 | 337 | 3.0 | 4.0 | 0.01 | 0.42 | 0.42 | 92 | 1046.1 |
| 20260505224523 | 48 | 326 | 3.0 | 5.0 | 0.01 | 0.42 | 0.42 | 91 | 1046.1 |
| 20260505224043 | 48 | 347 | 4.0 | 5.0 | 0.01 | 0.42 | 0.42 | 91 | 1045.9 |
| 20260505223523 | 48 | 328 | 4.0 | 5.0 | 0.01 | 0.42 | 0.42 | 91 | 1045.1 |
| 20260505223025 | 48 | 6 | 4.0 | 5.0 | 0.00 | 0.41 | 0.41 | 90 | 1045.2 |
| 20260505222523 | 48 | 2 | 4.0 | 5.0 | 0.00 | 0.41 | 0.41 | 90 | 1045.4 |
| 20260505222022 | 48 | 11 | 4.0 | 4.0 | 0.00 | 0.41 | 0.41 | 91 | 1045.4 |
| 20260505221522 | 48 | 7 | 4.0 | 5.0 | 0.00 | 0.41 | 0.41 | 91 | 1045.3 |
| 20260505221023 | 48 | 1 | 4.0 | 4.0 | 0.00 | 0.41 | 0.41 | 91 | 1045.2 |
| 20260505220523 | 48 | 332 | 4.0 | 5.0 | 0.00 | 0.41 | 0.41 | 91 | 1045.1 |
| 20260505220024 | 48 | 347 | 4.0 | 5.0 | 0.00 | 0.41 | 0.41 | 91 | 1045.1 |
| 20260505215526 | 48 | 353 | 4.0 | 5.0 | 0.00 | 0.41 | 0.41 | 91 | 1045.0 |
| 20260505215022 | 48 | 358 | 4.0 | 5.0 | 0.00 | 0.41 | 0.41 | 91 | 1045.0 |
| 20260505214523 | 48 | 346 | 4.0 | 4.0 | 0.01 | 0.41 | 0.41 | 91 | 1045.0 |
| 20260505214043 | 48 | 320 | 4.0 | 5.0 | 0.01 | 0.41 | 0.41 | 91 | 1044.9 |
| 20260505213523 | 48 | 326 | 4.0 | 5.0 | 0.01 | 0.41 | 0.41 | 91 | 1044.7 |
| 20260505213024 | 48 | 298 | 3.0 | 4.0 | 0.01 | 0.41 | 0.41 | 91 | 1044.8 |
| 20260505212523 | 48 | 342 | 4.0 | 5.0 | 0.01 | 0.41 | 0.41 | 91 | 1044.8 |
| 20260505212025 | 48 | 8 | 4.0 | 5.0 | 0.01 | 0.41 | 0.41 | 91 | 1045.1 |
| 20260505211523 | 48 | 360 | 4.0 | 5.0 | 0.01 | 0.41 | 0.41 | 90 | 1045.3 |
| 20260505211023 | 48 | 355 | 4.0 | 5.0 | 0.02 | 0.41 | 0.41 | 90 | 1045.5 |
| 20260505210523 | 48 | 349 | 4.0 | 4.0 | 0.02 | 0.41 | 0.41 | 90 | 1045.7 |
| 20260505210024 | 49 | 353 | 4.0 | 4.0 | 0.02 | 0.41 | 0.41 | 90 | 1045.5 |
| 20260505205525 | 49 | 318 | 4.0 | 5.0 | 0.02 | 0.41 | 0.41 | 90 | 1044.9 |
| 20260505205026 | 49 | 7 | 4.0 | 5.0 | 0.02 | 0.41 | 0.41 | 89 | 1044.0 |
| 20260505204543 | 49 | 6 | 3.0 | 4.0 | 0.01 | 0.40 | 0.40 | 87 | 1042.8 |
| 20260505204104 | 49 | 8 | 3.0 | 4.0 | 0.01 | 0.40 | 0.40 | 87 | 1042.3 |
| 20260505203525 | 49 | 351 | 3.0 | 4.0 | 0.01 | 0.40 | 0.40 | 86 | 1041.9 |
| 20260505203023 | 49 | 0 | 3.0 | 4.0 | 0.01 | 0.40 | 0.40 | 86 | 1041.3 |
| 20260505202523 | 49 | 14 | 4.0 | 4.0 | 0.01 | 0.40 | 0.40 | 86 | 1041.1 |
| 20260505202025 | 49 | 356 | 4.0 | 4.0 | 0.01 | 0.40 | 0.40 | 86 | 1040.0 |
| 20260505201527 | 49 | 12 | 4.0 | 5.0 | 0.01 | 0.40 | 0.40 | 85 | 1039.2 |
| 20260505201044 | 49 | 2 | 4.0 | 5.0 | 0.00 | 0.39 | 0.39 | 85 | 1038.9 |
| 20260505200524 | 50 | 359 | 3.0 | 4.0 | 0.00 | 0.39 | 0.39 | 84 | 1036.8 |
| 20260505200024 | 50 | 351 | 3.0 | 5.0 | 0.00 | 0.39 | 0.39 | 82 | 1034.2 |
| 20260505195525 | 50 | 6 | 4.0 | 5.0 | 0.00 | 0.39 | 0.39 | 81 | 1034.0 |
| 20260505195025 | 50 | 4 | 4.0 | 5.0 | 0.00 | 0.39 | 0.39 | 82 | 1035.5 |
| 20260505194525 | 50 | 4 | 4.0 | 5.0 | 0.00 | 0.39 | 0.39 | 82 | 1035.6 |
| 20260505194024 | 51 | 351 | 4.0 | 4.0 | 0.00 | 0.39 | 0.39 | 82 | 1034.5 |
| 20260505193525 | 51 | 359 | 4.0 | 5.0 | 0.00 | 0.39 | 0.39 | 81 | 1033.9 |
| 20260505193025 | 51 | 347 | 4.0 | 5.0 | 0.00 | 0.39 | 0.39 | 81 | 1033.6 |
| 20260505192526 | 52 | 348 | 4.0 | 5.0 | 0.00 | 0.39 | 0.39 | 81 | 1033.9 |
| 20260505192025 | 52 | 355 | 4.0 | 5.0 | 0.00 | 0.39 | 0.39 | 81 | 1033.4 |
| 20260505191522 | 52 | 350 | 4.0 | 5.0 | 0.00 | 0.39 | 0.39 | 80 | 1032.4 |
| 20260505191022 | 52 | 353 | 4.0 | 6.0 | 0.00 | 0.39 | 0.39 | 81 | 1033.2 |
| 20260505190546 | 52 | 349 | 4.0 | 5.0 | 0.00 | 0.39 | 0.39 | 81 | 1032.7 |
| 20260505190022 | 52 | 358 | 4.0 | 6.0 | 0.00 | 0.39 | 0.39 | 80 | 1031.7 |
| 20260505185522 | 52 | 350 | 4.0 | 5.0 | 0.00 | 0.40 | 0.39 | 81 | 1033.6 |
| 20260505185026 | 52 | 340 | 4.0 | 5.0 | 0.00 | 0.42 | 0.39 | 82 | 1034.6 |
| 20260505184525 | 52 | 325 | 4.0 | 5.0 | 0.00 | 0.42 | 0.39 | 81 | 1034.0 |
| 20260505184023 | 52 | 0 | 4.0 | 6.0 | 0.00 | 0.50 | 0.39 | 82 | 1035.2 |
| 20260505183522 | 52 | 4 | 4.0 | 5.0 | 0.00 | 0.53 | 0.39 | 82 | 1035.3 |
| 20260505183023 | 52 | 358 | 4.0 | 5.0 | 0.00 | 0.58 | 0.39 | 82 | 1035.4 |
| 20260505182522 | 52 | 352 | 4.0 | 5.0 | 0.00 | 0.78 | 0.39 | 83 | 1036.4 |
| 20260505182027 | 52 | 12 | 4.0 | 5.0 | 0.00 | 0.87 | 0.39 | 82 | 1035.4 |
| 20260505181526 | 52 | 343 | 4.0 | 5.0 | 0.00 | 0.87 | 0.39 | 82 | 1035.6 |
| 20260505181026 | 52 | 4 | 4.0 | 5.0 | 0.00 | 0.87 | 0.39 | 83 | 1036.4 |
| 20260505180527 | 53 | 306 | 3.0 | 4.0 | 0.00 | 0.87 | 0.39 | 82 | 1035.2 |
| 20260505180026 | 53 | 345 | 4.0 | 4.0 | 0.00 | 0.87 | 0.39 | 81 | 1034.8 |
| 20260505175607 | 53 | 356 | 4.0 | 5.0 | 0.01 | 0.87 | 0.39 | 82 | 1036.9 |
| 20260505175027 | 53 | 338 | 4.0 | 5.0 | 0.01 | 0.87 | 0.39 | 83 | 1036.6 |
| 20260505174527 | 53 | 351 | 4.0 | 4.0 | 0.01 | 0.87 | 0.39 | 82 | 1036.2 |
| 20260505174027 | 53 | 336 | 3.0 | 4.0 | 0.01 | 0.87 | 0.39 | 81 | 1034.8 |
| 20260505173527 | 54 | 313 | 4.0 | 4.0 | 0.01 | 0.87 | 0.39 | 80 | 1032.7 |
| 20260505173027 | 54 | 336 | 4.0 | 4.0 | 0.01 | 0.87 | 0.39 | 81 | 1034.2 |
| 20260505172547 | 54 | 332 | 3.0 | 5.0 | 0.01 | 0.87 | 0.39 | 81 | 1033.9 |
| 20260505172027 | 54 | 347 | 3.0 | 4.0 | 0.01 | 0.87 | 0.39 | 80 | 1032.7 |
| 20260505171527 | 54 | 238 | 3.0 | 4.0 | 0.01 | 0.87 | 0.39 | 79 | 1031.8 |
| 20260505171028 | 55 | 348 | 3.0 | 4.0 | 0.01 | 0.87 | 0.39 | 78 | 1029.7 |
| 20260505170528 | 55 | 357 | 4.0 | 5.0 | 0.01 | 0.88 | 0.39 | 78 | 1029.8 |
| 20260505170028 | 55 | 357 | 4.0 | 5.0 | 0.01 | 0.88 | 0.39 | 77 | 1028.5 |
| 20260505165546 | 55 | 6 | 5.0 | 6.0 | 0.00 | 0.88 | 0.38 | 75 | 1027.9 |
| 20260505165047 | 55 | 9 | 4.0 | 5.0 | 0.00 | 0.88 | 0.38 | 74 | 1028.1 |
| 20260505164527 | 55 | 261 | 3.0 | 5.0 | 0.00 | 0.88 | 0.38 | 74 | 1028.3 |
| 20260505164105 | 55 | 283 | 4.0 | 5.0 | 0.00 | 0.88 | 0.38 | 74 | 1028.3 |
| 20260505163524 | 55 | 323 | 3.0 | 5.0 | 0.00 | 0.88 | 0.38 | 74 | 1028.5 |
| 20260505163046 | 55 | 326 | 4.0 | 5.0 | 0.00 | 0.88 | 0.38 | 73 | 1028.9 |
| 20260505162527 | 55 | 308 | 3.0 | 5.0 | 0.00 | 0.88 | 0.38 | 74 | 1028.5 |
| 20260505162028 | 55 | 230 | 2.0 | 5.0 | 0.00 | 0.88 | 0.38 | 73 | 1028.9 |
| 20260505161550 | 55 | 328 | 3.0 | 5.0 | 0.00 | 0.88 | 0.38 | 74 | 1028.5 |
| 20260505161028 | 55 | 267 | 2.0 | 4.0 | 0.00 | 0.88 | 0.38 | 73 | 1029.5 |
| 20260505160526 | 55 | 287 | 3.0 | 5.0 | 0.00 | 0.88 | 0.38 | 74 | 1028.9 |
| 20260505153021 | 53 | 330 | 4.0 | 6.0 | 0.00 | 0.88 | 0.38 | 83 | 1035.6 |
| 20260505152520 | 52 | 342 | 4.0 | 5.0 | 0.00 | 0.88 | 0.38 | 86 | 1040.9 |
| 20260505152028 | 52 | 329 | 3.0 | 6.0 | 0.00 | 0.88 | 0.38 | 89 | 1042.0 |
| 20260505151525 | 51 | 349 | 4.0 | 6.0 | 0.00 | 0.88 | 0.38 | 89 | 1041.9 |
| 20260505151025 | 51 | 354 | 5.0 | 6.0 | 0.00 | 0.88 | 0.38 | 90 | 1041.5 |
| 20260505150526 | 51 | 308 | 5.0 | 7.0 | 0.00 | 0.88 | 0.38 | 91 | 1040.7 |
| 20260505140550 | 49 | 319 | 1.0 | 2.0 | 0.02 | 0.88 | 0.38 | 95 | 1039.4 |
| 20260505140111 | 48 | 331 | 1.0 | 2.0 | 0.03 | 0.88 | 0.38 | 95 | 1039.3 |
| 20260505124523 | 49 | 312 | 4.0 | 5.0 | 0.10 | 0.83 | 0.33 | 94 | 1040.7 |
| 20260505124023 | 49 | 3 | 3.0 | 6.0 | 0.15 | 0.82 | 0.32 | 93 | 1040.4 |
| 20260505123531 | 49 | 350 | 1.0 | 3.0 | 0.18 | 0.81 | 0.31 | 93 | 1040.2 |
| 20260505123032 | 50 | 322 | 1.0 | 3.0 | 0.16 | 0.79 | 0.29 | 94 | 1040.5 |
| 20260505122533 | 50 | 339 | 1.0 | 3.0 | 0.15 | 0.79 | 0.29 | 94 | 1041.0 |
| 20260505122032 | 50 | 336 | 1.0 | 3.0 | 0.15 | 0.79 | 0.29 | 94 | 1041.6 |
| 20260505121634 | 50 | 345 | 2.0 | 3.0 | 0.15 | 0.79 | 0.29 | 93 | 1042.4 |
| 20260505121032 | 50 | 353 | 2.0 | 3.0 | 0.15 | 0.79 | 0.29 | 93 | 1043.2 |
| 20260505120532 | 51 | 21 | 3.0 | 4.0 | 0.15 | 0.79 | 0.29 | 93 | 1044.2 |
| 20260505120032 | 51 | 320 | 3.0 | 5.0 | 0.15 | 0.79 | 0.29 | 92 | 1044.6 |
| 20260505115532 | 52 | 357 | 3.0 | 5.0 | 0.13 | 0.77 | 0.26 | 92 | 1044.8 |
| 20260505115032 | 52 | 0 | 3.0 | 4.0 | 0.09 | 0.73 | 0.23 | 92 | 1045.6 |
| 20260505114534 | 53 | 331 | 2.0 | 3.0 | 0.09 | 0.72 | 0.22 | 90 | 1044.0 |
| 20260505114034 | 53 | 355 | 3.0 | 5.0 | 0.04 | 0.68 | 0.18 | 88 | 1042.7 |
| 20260505113523 | 53 | 17 | 3.0 | 5.0 | 0.00 | 0.63 | 0.13 | 87 | 1041.9 |
| 20260505113024 | 53 | 354 | 4.0 | 6.0 | 0.00 | 0.63 | 0.13 | 88 | 1041.8 |
| 20260505112523 | 53 | 8 | 5.0 | 6.0 | 0.00 | 0.63 | 0.13 | 88 | 1040.7 |
| 20260505112023 | 54 | 3 | 5.0 | 6.0 | 0.00 | 0.63 | 0.13 | 87 | 1040.0 |
| 20260505111526 | 54 | 360 | 4.0 | 6.0 | 0.01 | 0.63 | 0.13 | 88 | 1041.3 |
| 20260505111024 | 54 | 10 | 3.0 | 5.0 | 0.01 | 0.63 | 0.13 | 89 | 1040.8 |
| 20260505110554 | 55 | 330 | 2.0 | 3.0 | 0.01 | 0.63 | 0.13 | 90 | 1040.3 |
| 20260505102033 | 58 | 359 | 2.0 | 3.0 | 0.12 | 0.63 | 0.13 | 93 | 1039.9 |
| 20260505101534 | 58 | 3 | 2.0 | 4.0 | 0.11 | 0.62 | 0.12 | 92 | 1040.7 |
| 20260505101039 | 58 | 354 | 2.0 | 3.0 | 0.11 | 0.62 | 0.12 | 92 | 1041.6 |
| 20260505100534 | 59 | 349 | 3.0 | 6.0 | 0.11 | 0.62 | 0.12 | 91 | 1043.0 |
| 20260505100026 | 60 | 350 | 4.0 | 5.0 | 0.11 | 0.62 | 0.12 | 90 | 1043.6 |
| 20260505095525 | 61 | 341 | 3.0 | 6.0 | 0.10 | 0.62 | 0.12 | 88 | 1042.2 |
| 20260505095034 | 62 | 343 | 4.0 | 5.0 | 0.10 | 0.61 | 0.11 | 84 | 1038.7 |
| 20260505094534 | 63 | 349 | 3.0 | 4.0 | 0.02 | 0.53 | 0.03 | 81 | 1035.2 |
| 20260505094034 | 63 | 354 | 3.0 | 4.0 | 0.01 | 0.53 | 0.03 | 78 | 1032.0 |
| 20260505093537 | 64 | 305 | 3.0 | 4.0 | 0.00 | 0.51 | 0.01 | 76 | 1028.1 |
| 20260505093037 | 64 | 314 | 3.0 | 4.0 | 0.00 | 0.51 | 0.01 | 72 | 1024.2 |
| 20260505092555 | 63 | 345 | 3.0 | 4.0 | 0.00 | 0.51 | 0.01 | 70 | 1024.5 |
| 20260505092036 | 63 | 254 | 3.0 | 4.0 | 0.00 | 0.51 | 0.01 | 70 | 1024.4 |
| 20260505091535 | 63 | 247 | 3.0 | 4.0 | 0.00 | 0.51 | 0.01 | 71 | 1024.1 |
| 20260505091035 | 63 | 294 | 2.0 | 4.0 | 0.00 | 0.51 | 0.01 | 72 | 1024.3 |
| 20260505090535 | 63 | 269 | 2.0 | 4.0 | 0.00 | 0.51 | 0.01 | 71 | 1024.2 |
| 20260505090023 | 63 | 301 | 2.0 | 4.0 | 0.01 | 0.51 | 0.01 | 72 | 1024.2 |
| 20260505085521 | 63 | 243 | 2.0 | 4.0 | 0.01 | 0.51 | 0.01 | 72 | 1024.3 |
| 20260505085020 | 63 | 290 | 2.0 | 3.0 | 0.01 | 0.51 | 0.01 | 73 | 1024.5 |
| 20260505084520 | 63 | 21 | 2.0 | 4.0 | 0.01 | 0.51 | 0.01 | 73 | 1024.6 |
| 20260505084022 | 64 | 250 | 2.0 | 4.0 | 0.01 | 0.51 | 0.01 | 73 | 1025.3 |
| 20260505083520 | 64 | 358 | 3.0 | 4.0 | 0.01 | 0.51 | 0.01 | 74 | 1025.6 |
| 20260505083021 | 64 | 198 | 1.0 | 3.0 | 0.01 | 0.51 | 0.01 | 74 | 1025.8 |
| 20260505082521 | 65 | 245 | 3.0 | 4.0 | 0.01 | 0.51 | 0.01 | 72 | 1024.8 |
| 20260505082036 | 65 | 220 | 1.0 | 3.0 | 0.01 | 0.51 | 0.01 | 71 | 1025.3 |
| 20260505081535 | 66 | 233 | 3.0 | 4.0 | 0.01 | 0.51 | 0.01 | 69 | 1026.2 |
| 20260505081036 | 66 | 0.0 | 0.0 | 0.01 | 0.51 | 0.01 | 69 | 1027.0 | |
| 20260505080556 | 67 | 196 | 0.0 | 1.0 | 0.01 | 0.51 | 0.01 | 65 | 1031.1 |
| 20260505080021 | 67 | 282 | 1.0 | 1.0 | 0.00 | 0.50 | 0.00 | 62 | 1030.9 |
| 20260505075521 | 67 | 288 | 0.0 | 1.0 | 0.00 | 0.50 | 0.00 | 61 | 1029.5 |
| 20260505075022 | 67 | 340 | 0.0 | 1.0 | 0.00 | 0.50 | 0.00 | 62 | 1029.8 |
| 20260505074521 | 67 | 285 | 0.0 | 1.0 | 0.00 | 0.50 | 0.00 | 61 | 1029.5 |
| 20260505074022 | 67 | 290 | 1.0 | 1.0 | 0.00 | 0.50 | 0.00 | 61 | 1028.6 |
| 20260505073542 | 68 | 281 | 1.0 | 2.0 | 0.00 | 0.50 | 0.00 | 60 | 1028.3 |
| 20260505073022 | 68 | 297 | 1.0 | 1.0 | 0.00 | 0.50 | 0.00 | 61 | 1029.5 |
| 20260505072542 | 68 | 297 | 0.0 | 1.0 | 0.00 | 0.50 | 0.00 | 61 | 1028.9 |
| 20260505072022 | 68 | 289 | 1.0 | 2.0 | 0.00 | 0.50 | 0.00 | 60 | 1028.1 |
| 20260505071542 | 68 | 297 | 1.0 | 2.0 | 0.00 | 0.50 | 0.00 | 61 | 1028.9 |
| 20260505071042 | 69 | 306 | 1.0 | 2.0 | 0.00 | 0.50 | 0.00 | 61 | 1029.1 |
| 20260505070522 | 69 | 282 | 1.0 | 2.0 | 0.00 | 0.50 | 0.00 | 61 | 1029.4 |
| 20260505070021 | 69 | 301 | 1.0 | 2.0 | 0.00 | 0.50 | 0.00 | 62 | 1030.7 |
| 20260505065520 | 69 | 303 | 1.0 | 2.0 | 0.00 | 0.50 | 0.00 | 63 | 1031.1 |
| 20260505065021 | 69 | 184 | 2.0 | 3.0 | 0.00 | 0.50 | 0.00 | 62 | 1030.0 |
| 20260505064520 | 69 | 177 | 1.0 | 3.0 | 0.00 | 0.50 | 0.00 | 62 | 1030.2 |
| 20260505064020 | 69 | 185 | 2.0 | 3.0 | 0.00 | 0.50 | 0.00 | 62 | 1030.0 |
| 20260505063521 | 69 | 173 | 2.0 | 3.0 | 0.00 | 0.50 | 0.00 | 62 | 1030.0 |
| 20260505063020 | 69 | 178 | 1.0 | 2.0 | 0.00 | 0.50 | 0.00 | 62 | 1030.2 |
| 20260505062521 | 69 | 193 | 2.0 | 3.0 | 0.00 | 0.50 | 0.00 | 62 | 1030.1 |
| 20260505062023 | 69 | 191 | 1.0 | 2.0 | 0.00 | 0.50 | 0.00 | 61 | 1029.5 |
| 20260505061522 | 69 | 176 | 1.0 | 2.0 | 0.00 | 0.50 | 0.00 | 61 | 1029.2 |
| 20260505061023 | 70 | 172 | 2.0 | 4.0 | 0.00 | 0.50 | 0.00 | 61 | 1028.9 |
| 20260505060522 | 70 | 201 | 2.0 | 3.0 | 0.00 | 0.50 | 0.00 | 61 | 1028.5 |
| 20260505060023 | 70 | 182 | 2.0 | 3.0 | 0.00 | 0.50 | 0.00 | 61 | 1028.1 |
| 20260505055522 | 70 | 185 | 2.0 | 4.0 | 0.00 | 0.50 | 0.00 | 60 | 1028.3 |
| 20260505055022 | 70 | 176 | 2.0 | 4.0 | 0.00 | 0.50 | 0.00 | 60 | 1027.8 |
| 20260505054521 | 70 | 204 | 2.0 | 4.0 | 0.00 | 0.50 | 0.00 | 60 | 1027.4 |
| 20260505054022 | 70 | 183 | 2.0 | 5.0 | 0.00 | 0.50 | 0.00 | 60 | 1026.5 |
| 20260505053541 | 70 | 198 | 1.0 | 4.0 | 0.00 | 0.50 | 0.00 | 60 | 1027.2 |
| 20260505053022 | 70 | 183 | 1.0 | 3.0 | 0.00 | 0.50 | 0.00 | 59 | 1026.3 |
| 20260505052522 | 70 | 159 | 2.0 | 5.0 | 0.00 | 0.50 | 0.00 | 59 | 1025.5 |
| 20260505052023 | 70 | 191 | 2.0 | 4.0 | 0.00 | 0.50 | 0.00 | 59 | 1025.8 |
| 20260505051522 | 70 | 166 | 2.0 | 5.0 | 0.00 | 0.50 | 0.00 | 59 | 1026.0 |
| 20260505051022 | 71 | 181 | 2.0 | 3.0 | 0.00 | 0.50 | 0.00 | 59 | 1026.2 |
| 20260505050522 | 71 | 183 | 2.0 | 6.0 | 0.00 | 0.50 | 0.00 | 59 | 1024.5 |
| 20260505041523 | 71 | 176 | 3.0 | 6.0 | 0.00 | 0.50 | 0.50 | 59 | 1024.9 |
| 20260505041024 | 71 | 176 | 2.0 | 7.0 | 0.00 | 0.50 | 0.50 | 59 | 1025.1 |
| 20260505040525 | 71 | 178 | 3.0 | 7.0 | 0.00 | 0.50 | 0.50 | 58 | 1024.9 |
| 20260505040044 | 71 | 172 | 3.0 | 5.0 | 0.00 | 0.50 | 0.50 | 58 | 1024.4 |
| 20260505035523 | 71 | 166 | 3.0 | 6.0 | 0.00 | 0.50 | 0.50 | 58 | 1024.5 |
| 20260505035024 | 71 | 192 | 1.0 | 3.0 | 0.00 | 0.50 | 0.50 | 59 | 1025.5 |
| 20260505034523 | 71 | 184 | 2.0 | 3.0 | 0.00 | 0.50 | 0.50 | 58 | 1024.7 |
| 20260505034023 | 71 | 173 | 2.0 | 3.0 | 0.00 | 0.50 | 0.50 | 58 | 1024.2 |
| 20260505033523 | 72 | 193 | 1.0 | 2.0 | 0.00 | 0.50 | 0.50 | 57 | 1023.8 |
| 20260505033103 | 72 | 173 | 2.0 | 3.0 | 0.00 | 0.50 | 0.50 | 56 | 1021.9 |
| 20260505032524 | 72 | 175 | 1.0 | 2.0 | 0.00 | 0.50 | 0.50 | 56 | 1021.2 |
| 20260505032024 | 73 | 173 | 2.0 | 4.0 | 0.00 | 0.50 | 0.50 | 56 | 1019.9 |
| 20260505031525 | 73 | 170 | 2.0 | 4.0 | 0.00 | 0.50 | 0.50 | 55 | 1018.9 |
| 20260505031145 | 73 | 180 | 2.0 | 3.0 | 0.00 | 0.50 | 0.50 | 55 | 1018.0 |
| 20260505030524 | 73 | 170 | 2.0 | 4.0 | 0.00 | 0.50 | 0.50 | 55 | 1017.9 |
| 20260505030027 | 73 | 176 | 1.0 | 2.0 | 0.00 | 0.50 | 0.50 | 54 | 1016.9 |
| 20260505025525 | 74 | 166 | 2.0 | 5.0 | 0.00 | 0.50 | 0.50 | 54 | 1016.2 |
| 20260505025025 | 74 | 173 | 2.0 | 3.0 | 0.00 | 0.50 | 0.50 | 53 | 1015.4 |
| 20260505024524 | 74 | 175 | 2.0 | 5.0 | 0.00 | 0.50 | 0.50 | 54 | 1015.4 |
| 20260505024026 | 74 | 163 | 1.0 | 3.0 | 0.00 | 0.50 | 0.50 | 54 | 1015.6 |
| 20260505023526 | 74 | 170 | 2.0 | 3.0 | 0.00 | 0.50 | 0.50 | 54 | 1015.7 |
| 20260505023025 | 74 | 158 | 2.0 | 4.0 | 0.00 | 0.50 | 0.50 | 53 | 1014.9 |
| 20260505022526 | 74 | 162 | 2.0 | 3.0 | 0.00 | 0.50 | 0.50 | 53 | 1014.3 |
| 20260505022026 | 74 | 150 | 2.0 | 4.0 | 0.00 | 0.50 | 0.50 | 53 | 1014.7 |
| 20260505021526 | 74 | 161 | 1.0 | 3.0 | 0.00 | 0.50 | 0.50 | 53 | 1014.2 |
| 20260505021027 | 74 | 166 | 2.0 | 4.0 | 0.00 | 0.50 | 0.50 | 53 | 1014.9 |
| 20260505020526 | 74 | 164 | 2.0 | 3.0 | 0.00 | 0.50 | 0.50 | 54 | 1015.1 |
| 20260505020026 | 74 | 167 | 2.0 | 3.0 | 0.00 | 0.50 | 0.50 | 54 | 1015.6 |
| 20260505015605 | 74 | 169 | 2.0 | 4.0 | 0.00 | 0.50 | 0.50 | 53 | 1013.9 |
| 20260505015025 | 74 | 173 | 2.0 | 4.0 | 0.00 | 0.50 | 0.50 | 53 | 1014.5 |
| 20260505014522 | 74 | 161 | 2.0 | 5.0 | 0.00 | 0.50 | 0.50 | 53 | 1014.3 |
| 20260505014025 | 74 | 161 | 2.0 | 5.0 | 0.00 | 0.50 | 0.50 | 54 | 1015.2 |
| 20260505013522 | 74 | 172 | 2.0 | 5.0 | 0.00 | 0.50 | 0.50 | 53 | 1014.4 |
| 20260505013022 | 74 | 161 | 1.0 | 4.0 | 0.00 | 0.50 | 0.50 | 53 | 1014.7 |
| 20260505012522 | 74 | 171 | 1.0 | 3.0 | 0.00 | 0.50 | 0.50 | 53 | 1014.5 |
| 20260505012023 | 75 | 169 | 2.0 | 3.0 | 0.00 | 0.50 | 0.50 | 53 | 1014.5 |
| 20260505011523 | 75 | 166 | 1.0 | 3.0 | 0.00 | 0.50 | 0.50 | 53 | 1013.8 |
| 20260505011022 | 75 | 176 | 1.0 | 4.0 | 0.00 | 0.50 | 0.50 | 52 | 1012.6 |
| 20260505010522 | 75 | 172 | 2.0 | 4.0 | 0.00 | 0.50 | 0.50 | 52 | 1011.6 |
| 20260505010042 | 76 | 180 | 2.0 | 4.0 | 0.00 | 0.50 | 0.50 | 51 | 1011.3 |
| 20260505005522 | 76 | 167 | 2.0 | 4.0 | 0.00 | 0.50 | 0.50 | 51 | 1010.2 |
| 20260505005022 | 76 | 159 | 2.0 | 5.0 | 0.00 | 0.50 | 0.50 | 50 | 1009.5 |
| 20260505004523 | 76 | 156 | 2.0 | 5.0 | 0.00 | 0.50 | 0.50 | 51 | 1009.6 |
| 20260505004023 | 76 | 173 | 2.0 | 5.0 | 0.00 | 0.50 | 0.50 | 50 | 1009.5 |
| 20260505003520 | 76 | 162 | 2.0 | 4.0 | 0.00 | 0.50 | 0.50 | 50 | 1008.6 |
| 20260505003023 | 77 | 164 | 2.0 | 6.0 | 0.00 | 0.50 | 0.50 | 51 | 1010.1 |
| 20260505002523 | 77 | 161 | 2.0 | 5.0 | 0.00 | 0.50 | 0.50 | 51 | 1009.3 |
| 20260505002023 | 77 | 159 | 2.0 | 5.0 | 0.00 | 0.50 | 0.50 | 51 | 1009.9 |
| 20260505001543 | 77 | 158 | 2.0 | 5.0 | 0.00 | 0.50 | 0.50 | 51 | 1010.0 |
| 20260505001043 | 77 | 173 | 2.0 | 5.0 | 0.00 | 0.50 | 0.50 | 51 | 1009.9 |
| 20260505000525 | 77 | 163 | 2.0 | 6.0 | 0.00 | 0.50 | 0.50 | 52 | 1010.6 |
| 20260505000025 | 77 | 167 | 1.0 | 3.0 | 0.00 | 0.50 | 0.50 | 52 | 1011.2 |
| 20260504235521 | 78 | 169 | 2.0 | 4.0 | 0.00 | 0.50 | 0.50 | 51 | 1010.3 |
| 20260504235020 | 78 | 165 | 2.0 | 4.0 | 0.00 | 0.50 | 0.50 | 51 | 1011.1 |
| 20260504234521 | 78 | 157 | 2.0 | 4.0 | 0.00 | 0.50 | 0.50 | 51 | 1010.1 |
| 20260504234021 | 78 | 170 | 2.0 | 5.0 | 0.00 | 0.50 | 0.50 | 51 | 1009.8 |
| 20260504233523 | 78 | 170 | 2.0 | 5.0 | 0.00 | 0.50 | 0.50 | 50 | 1008.6 |
| 20260504233024 | 78 | 170 | 2.0 | 4.0 | 0.00 | 0.50 | 0.50 | 50 | 1009.7 |
| 20260504232525 | 79 | 157 | 3.0 | 6.0 | 0.00 | 0.50 | 0.50 | 49 | 1008.1 |
| 20260504232044 | 79 | 177 | 2.0 | 8.0 | 0.00 | 0.50 | 0.50 | 50 | 1008.9 |
| 20260504231521 | 78 | 167 | 2.0 | 5.0 | 0.00 | 0.50 | 0.50 | 51 | 1010.9 |
| 20260504231021 | 78 | 161 | 3.0 | 6.0 | 0.00 | 0.50 | 0.50 | 50 | 1008.7 |